Regional Weather Roundup
Issued by NWS Albany, NY

Home | Current Version | Previous Version | Graphics & Text | Print | Product List | Glossary On
Versions: 1 2 3 4 5 6 7 8 9 10 11 12 13 14 15 16 17 18 19 20 21 22 23 24 25 26 27
000
ASUS41 KALY 081110
RWRALY

NEW YORK STATE HOURLY WEATHER ROUNDUP
NATIONAL WEATHER SERVICE ALBANY NY
600 AM EST THU DEC 08 2016

NOTE: "FAIR" INDICATES FEW OR NO CLOUDS BELOW 12,000 FEET WITH NO
SIGNIFICANT WEATHER AND/OR NO OBSTRUCTIONS TO VISIBILITY.

NYZ032-033-038>043-046>054-057>066-NYZ062>081-082-084-081200-
EAST


CITY           SKY/WX    TMP DP  RH WIND       PRES   REMARKS
ALBANY         FOG       32  32 100 VRB5      29.94F VSB 1/4 WCI  27
GLENS FALLS    FOG       27  23  85 CALM      29.91S VSB 1/4
POUGHKEEPSIE   CLOUDY    29  27  92 CALM      29.95S
NEWBURGH       MOCLDY    34  30  86 W5        29.97R WCI  30
MONTGOMERY     MOCLDY    30  28  92 SW6       29.95R WCI  24
WHITE PLAINS   CLOUDY    35  30  82 W5        29.95S WCI  31
ISLIP          MOCLDY    31  30  96 CALM      29.97S
NEW YORK CITY  MOCLDY    44  29  55 W8        29.97S
CENTRAL PARK   PTCLDY    41  28  60 VRB3      30.00R
$$

NYZ005>009-017-018-044>046-055-056-081200-
CENTRAL


CITY           SKY/WX    TMP DP  RH WIND       PRES   REMARKS
FULTON         FLURRIES  35  28  75 SW6       29.90F WCI  30
SYRACUSE       FLURRIES  35  27  72 SW9       29.90F WCI  28
ROME           LGT SNOW  32  32 100 W3        29.93S FOG
ELMIRA         PTCLDY    31  21  66 W6        29.92F WCI  25
BINGHAMTON     CLOUDY    30  21  69 SW5       29.89F WCI  25
MONTICELLO     CLOUDY    30  27  86 W5        29.94S WCI  25
$$

NYZ026>034-041>043-087-081200-
NORTH


CITY           SKY/WX    TMP DP  RH WIND       PRES   REMARKS
WATERTOWN      LGT SNOW  33  33 100 SW7       29.86S FOG     WCI  27
FORT DRUM      NOT AVBL
OGDENSBURG     FAIR      34  29  80 SW7       29.83S WCI  28
MASSENA        PTCLDY    34  27  75 SW10      29.83F WCI  26
SARANAC LAKE   LGT SNOW  29  27  92 MISG      29.78S VSB 1
PLATTSBURGH    MOCLDY    32  28  85 S5        29.83F WCI  27
$$

NYZ001>004-010>016-019>021-085-081200-
WEST


CITY           SKY/WX    TMP DP  RH WIND       PRES   REMARKS
NIAGARA FALLS  CLOUDY    34  19  54 W23G30    29.90F WCI  22
BUFFALO        MOCLDY    31  21  66 W16G22    29.91S WCI  20
DUNKIRK        CLOUDY    35  25  66 SW10G21   29.93S WCI  27
JAMESTOWN      CLOUDY    28  21  74 SW16      29.90S WCI  17
WELLSVILLE     PTCLDY    28  20  71 MISG      29.89R
ROCHESTER      FLURRIES  34  26  72 W10       29.90F WCI  26
PENN YAN       PTCLDY    33  21  61 SW10      29.90S WCI  25
$$

             KEY
       WCI = WIND CHILL INDEX
       VSB = VISIBILITY
       HX  = HEAT INDEX
$$




USA.gov is the U.S. government's official web portal to all federal, state and local government web resources and services.